KM4KMS Weather Reports


time (UTC)temp
C
wind
direction
speed
KPH
gust
KPH
rain 1hr
cm
rain 24hr
cm
rain mn
cm
humidity
%
barometer
mb
20260906105636 21 355 0.0 1.6 0.00 0.00 0.00 99 1013.1
20260906105133 21 38 0.0 1.6 0.00 0.00 0.00 99 1013.0
20260906104631 21 356 0.0 1.6 0.00 0.00 0.00 99 1013.0
20260906104125 21 68 1.6 1.6 0.00 0.00 0.00 99 1012.8
20260906103623 21 28 0.0 1.6 0.00 0.00 0.00 99 1012.7
20260906103119 21 16 1.6 1.6 0.00 0.00 0.00 99 1012.7
20260906102614 21 33 0.0 1.6 0.00 0.00 0.00 99 1012.6
20260906102109 21 113 0.0 0.0 0.00 0.00 0.00 99 1012.5
20260906101603 21 72 0.0 0.0 0.00 0.00 0.00 99 1012.6
20260906101103 21 43 0.0 1.6 0.00 0.00 0.00 99 1012.6
20260906100558 21 25 0.0 1.6 0.00 0.00 0.00 99 1012.4
20260906100053 21 26 1.6 1.6 0.00 0.00 0.00 99 1012.4
20260906095553 21 36 0.0 0.0 0.00 0.00 0.00 99 1012.3
20260906095049 21 2 0.0 1.6 0.00 0.00 0.00 99 1011.9
20260906094547 21 26 0.0 3.2 0.00 0.00 0.00 99 1012.2
20260906094044 21 114 1.6 0.0 0.00 0.00 0.00 99 1012.3
20260906093539 21 12 0.0 0.0 0.00 0.00 0.00 99 1012.1
20260906093034 21 20 0.0 0.0 0.00 0.00 0.00 99 1012.0
20260906092529 21 16 0.0 1.6 0.00 0.00 0.00 99 1012.1
20260906092024 21 4 0.0 0.0 0.00 0.00 0.00 99 1012.1
20260906091520 21 357 0.0 1.6 0.00 0.00 0.00 99 1012.1
20260906091016 21 22 0.0 1.6 0.00 0.00 0.00 99 1012.1
20260906090516 21 54 1.6 1.6 0.00 0.00 0.00 99 1012.1
20260906090011 21 24 0.0 0.0 0.00 0.00 0.00 99 1012.3
20260906085509 21 4 0.0 0.0 0.00 0.00 0.00 99 1012.2
20260906085004 21 8 0.0 1.6 0.00 0.00 0.00 99 1012.0
20260906084459 21 5 0.0 0.0 0.00 0.00 0.00 99 1012.1
20260906083957 21 2 0.0 0.0 0.00 0.00 0.00 99 1011.9
20260906083454 21 9 0.0 0.0 0.00 0.00 0.00 99 1011.9
20260906082952 21 13 0.0 1.6 0.00 0.00 0.00 99 1012.0
20260906082448 21 12 0.0 0.0 0.00 0.00 0.00 99 1011.8
20260906081943 21 57 0.0 0.0 0.00 0.00 0.00 99 1012.1
20260906081438 21 37 0.0 1.6 0.00 0.00 0.00 99 1012.1
20260906080934 21 11 0.0 0.0 0.00 0.00 0.00 99 1012.0
20260906080431 21 11 0.0 1.6 0.00 0.00 0.00 99 1012.1
20260906075931 21 9 0.0 1.6 0.00 0.00 0.00 99 1012.0
20260906075426 21 9 0.0 0.0 0.00 0.00 0.00 99 1012.0
20260906074920 22 3 0.0 0.0 0.00 0.00 0.00 99 1012.0
20260906074415 22 28 0.0 0.0 0.00 0.00 0.00 99 1012.0
20260906073914 22 26 0.0 0.0 0.00 0.00 0.00 99 1011.9
20260906073409 22 36 0.0 0.0 0.00 0.00 0.00 99 1012.0
20260906072905 22 72 1.6 1.6 0.00 0.00 0.00 99 1012.0
20260906072401 22 357 0.0 1.6 0.00 0.00 0.00 99 1012.1
20260906071856 22 8 0.0 1.6 0.00 0.00 0.00 99 1012.2
20260906071351 22 0 0.0 1.6 0.00 0.00 0.00 99 1012.2
20260906070847 22 6 0.0 0.0 0.00 0.00 0.00 99 1012.1
20260906070343 22 9 0.0 0.0 0.00 0.00 0.00 99 1011.8
20260906065838 22 2 0.0 0.0 0.00 0.00 0.00 99 1012.1
20260906065333 22 41 0.0 0.0 0.00 0.00 0.00 99 1011.9
20260906064829 22 73 0.0 0.0 0.00 0.00 0.00 99 1012.0
20260906064324 22 54 0.0 0.0 0.00 0.00 0.00 99 1012.0
20260906063819 22 35 0.0 0.0 0.00 0.00 0.00 99 1012.2
20260906063315 22 24 0.0 0.0 0.00 0.00 0.00 99 1012.0
20260906062810 22 6 0.0 0.0 0.00 0.00 0.00 99 1012.3
20260906062309 22 356 0.0 0.0 0.00 0.00 0.00 99 1012.5
20260906061804 22 359 1.6 1.6 0.00 0.00 0.00 99 1012.2
20260906061301 22 353 1.6 1.6 0.00 0.00 0.00 99 1012.3
20260906060755 22 359 0.0 0.0 0.00 0.00 0.00 99 1012.7
20260906060253 22 359 0.0 1.6 0.00 0.00 0.00 99 1012.4
20260906055749 22 354 0.0 0.0 0.00 0.00 0.00 99 1012.5
20260906055244 22 14 1.6 1.6 0.00 0.00 0.00 99 1012.5
20260906054739 22 85 1.6 1.6 0.00 0.00 0.00 98 1012.5
20260906054234 22 79 0.0 0.0 0.00 0.00 0.00 99 1012.3
20260906053731 22 13 0.0 0.0 0.00 0.00 0.00 99 1012.4
20260906053226 22 16 0.0 1.6 0.00 0.00 0.00 99 1012.6
20260906052721 23 12 1.6 0.0 0.00 0.00 0.00 99 1012.4
20260906052217 23 8 1.6 1.6 0.00 0.00 0.00 99 1012.5
20260906051714 23 106 0.0 1.6 0.00 0.00 0.00 98 1012.6
20260906051213 23 169 0.0 0.0 0.00 0.00 0.00 98 1012.5
20260906050709 23 200 1.6 1.6 0.00 0.00 0.00 98 1012.5
20260906050204 23 202 1.6 1.6 0.00 0.00 0.00 98 1012.6
20260906045702 23 265 8.0 9.7 0.00 0.00 0.00 98 1012.3
20260906045157 23 243 3.2 3.2 0.00 0.00 0.00 98 1012.4
20260906044653 23 8 0.0 0.0 0.00 0.00 0.00 97 1012.3
20260906044148 23 19 0.0 0.0 0.00 0.00 0.00 97 1012.3
20260906043645 23 62 0.0 0.0 0.00 0.00 0.00 97 1012.3
20260906043140 23 60 0.0 0.0 0.00 0.00 0.00 97 1011.9
20260906042639 23 29 0.0 0.0 0.00 0.00 0.00 97 1012.1
20260906042134 23 27 0.0 0.0 0.00 0.00 0.00 96 1011.9
20260906041629 23 55 0.0 1.6 0.00 0.00 0.00 96 1012.2
20260906041124 23 61 0.0 0.0 0.00 0.00 0.00 96 1012.0
20260906040620 23 67 0.0 1.6 0.00 0.00 0.00 96 1012.1
20260906040115 23 34 0.0 0.0 0.00 0.56 0.56 95 1012.0
20260906035610 23 79 0.0 1.6 0.00 0.56 0.56 95 1012.0
20260906035106 23 84 1.6 1.6 0.00 0.56 0.56 94 1011.9
20260906034606 23 68 0.0 1.6 0.00 0.56 0.56 94 1011.9
20260906034101 24 4 0.0 0.0 0.00 0.56 0.56 94 1012.0
20260906033556 24 355 0.0 0.0 0.00 0.56 0.56 93 1012.0
20260906033051 24 23 0.0 0.0 0.00 0.56 0.56 93 1011.9
20260906032548 25 22 0.0 0.0 0.00 0.56 0.56 92 1011.8
20260906032042 25 45 0.0 0.0 0.00 0.56 0.56 91 1011.9
20260906031538 25 58 0.0 1.6 0.00 0.56 0.56 91 1011.8
20260906031033 25 71 1.6 1.6 0.00 0.56 0.56 91 1011.6
20260906030532 25 74 0.0 1.6 0.00 0.56 0.56 91 1011.8
20260906030032 25 88 1.6 1.6 0.00 0.56 0.56 92 1011.8
20260906025531 25 69 1.6 1.6 0.00 0.56 0.56 91 1011.7
20260906025024 25 61 0.0 1.6 0.00 0.56 0.56 91 1011.9
20260906024519 25 54 1.6 3.2 0.00 0.56 0.56 92 1011.6
20260906024014 25 82 1.6 4.8 0.00 0.56 0.56 93 1011.7
20260906023510 25 79 0.0 0.0 0.00 0.56 0.56 95 1011.7
20260906023005 25 49 1.6 4.8 0.00 0.56 0.56 96 1011.8
20260906022500 25 35 0.0 1.6 0.00 0.56 0.56 95 1011.7
20260906021955 25 359 1.6 1.6 0.00 0.56 0.56 95 1011.6
20260906021450 25 356 0.0 1.6 0.00 0.56 0.56 94 1011.4
20260906020950 25 344 1.6 1.6 0.00 0.56 0.56 95 1011.6
20260906020439 25 345 4.8 3.2 0.00 0.56 0.56 94 1011.4
20260906015939 25 358 1.6 1.6 0.00 0.56 0.56 94 1011.3
20260906015438 25 358 0.0 1.6 0.00 0.56 0.56 94 1011.5
20260906014933 25 359 1.6 0.0 0.00 0.56 0.56 94 1011.3
20260906014433 25 7 0.0 0.0 0.00 0.56 0.56 94 1011.3
20260906013929 25 18 0.0 0.0 0.00 0.56 0.56 93 1011.4
20260906013424 26 58 0.0 1.6 0.00 0.56 0.56 92 1011.5
20260906012919 26 3 0.0 0.0 0.00 0.56 0.56 87 1011.1
20260906012414 27 352 3.2 3.2 0.00 0.56 0.56 86 1011.1
20260906011913 27 357 3.2 3.2 0.00 0.56 0.56 86 1010.9
20260906011408 27 351 0.0 1.6 0.00 0.56 0.56 84 1011.1
20260906010858 27 258 3.2 3.2 0.00 0.56 0.56 85 1010.7
20260906010354 27 276 4.8 4.8 0.00 0.56 0.56 88 1011.0
20260906005850 27 343 3.2 3.2 0.00 0.56 0.56 89 1010.8
20260906005349 27 348 1.6 1.6 0.00 0.56 0.56 86 1010.8
20260906004848 27 254 4.8 4.8 0.00 0.56 0.56 86 1010.7
20260906004347 27 340 1.6 3.2 0.00 0.56 0.56 86 1010.5
20260906003843 28 349 1.6 1.6 0.00 0.56 0.56 84 1010.6
20260906003338 27 332 0.0 0.0 0.00 0.56 0.56 83 1010.7
20260906002833 27 356 0.0 0.0 0.00 0.56 0.56 85 1010.6
20260906002333 28 7 0.0 0.0 0.00 0.56 0.56 84 1010.6
20260906001829 28 358 0.0 0.0 0.00 0.56 0.56 84 1010.8
20260906001324 28 342 0.0 1.6 0.00 0.56 0.56 83 1010.9
20260906000819 28 312 1.6 1.6 0.00 0.56 0.56 83 1010.8
20260906000314 28 349 0.0 0.0 0.00 0.56 0.56 82 1010.8
20260905235808 28 11 0.0 0.0 0.00 0.56 0.56 83 1011.0
20260905235306 29 12 0.0 0.0 0.00 0.56 0.56 81 1011.1
20260905234758 29 7 0.0 0.0 0.00 0.56 0.56 81 1011.1
20260905234253 30 7 0.0 0.0 0.00 0.56 0.56 80 1010.9
20260905233748 30 9 0.0 0.0 0.00 0.56 0.56 76 1011.1
20260905233247 30 7 0.0 0.0 0.00 0.56 0.56 75 1011.3
20260905232742 30 9 0.0 0.0 0.00 0.56 0.56 76 1011.2
20260905232238 30 8 0.0 0.0 0.00 0.56 0.56 76 1011.4
20260905231734 31 4 0.0 0.0 0.00 0.56 0.56 78 1011.4
20260905231229 31 12 0.0 0.0 0.00 0.56 0.56 75 1011.3
20260905230725 31 13 0.0 0.0 0.00 0.56 0.56 73 1011.2
20260905230222 31 31 0.0 0.0 0.00 0.56 0.56 72 1011.1
20260905225722 32 56 0.0 0.0 0.00 0.56 0.56 70 1011.1
20260905225217 32 10 0.0 0.0 0.00 0.56 0.56 69 1011.1
20260905224716 32 8 0.0 0.0 0.00 0.56 0.56 70 1011.1
20260905224212 32 1 0.0 0.0 0.00 0.56 0.56 69 1011.0
20260905223708 32 19 0.0 0.0 0.00 0.56 0.56 70 1010.9
20260905223205 32 7 0.0 1.6 0.00 0.56 0.56 70 1011.0
20260905222700 32 11 0.0 1.6 0.00 0.56 0.56 68 1010.9
20260905222159 32 10 0.0 1.6 0.00 0.56 0.56 66 1010.9
20260905221655 32 355 3.2 3.2 0.00 0.56 0.56 66 1011.1
20260905221152 32 346 1.6 3.2 0.00 0.56 0.56 67 1010.8
20260905220647 32 353 3.2 4.8 0.00 0.56 0.56 64 1011.0
20260905220143 33 335 1.6 3.2 0.00 0.56 0.56 61 1011.0
20260905215643 33 329 1.6 3.2 0.00 0.56 0.56 63 1010.8
20260905215139 32 309 4.8 8.0 0.00 0.56 0.56 62 1011.0
20260905214634 32 349 3.2 8.0 0.00 0.56 0.56 65 1010.9
20260905214129 32 340 4.8 8.0 0.00 0.56 0.56 60 1011.2
20260905213625 33 344 6.4 4.8 0.00 0.56 0.56 62 1011.0
20260905213120 33 339 6.4 8.0 0.00 0.56 0.56 62 1011.0
20260905212615 33 263 4.8 4.8 0.00 0.56 0.56 60 1011.0
20260905212114 33 344 8.0 9.7 0.00 0.56 0.56 62 1011.1
20260905211609 33 327 6.4 8.0 0.00 0.56 0.56 60 1010.9
20260905211105 34 345 4.8 8.0 0.00 0.56 0.56 59 1010.9
20260905210601 35 270 3.2 3.2 0.00 0.56 0.56 55 1011.1
20260905210056 35 241 1.6 3.2 0.00 0.56 0.56 58 1011.0
20260905205555 34 274 1.6 1.6 0.00 0.56 0.56 58 1011.0
20260905205055 34 349 4.8 4.8 0.00 0.56 0.56 58 1011.2
20260905204549 33 268 6.4 11.3 0.00 0.56 0.56 57 1011.2
20260905204044 34 311 3.2 4.8 0.00 0.56 0.56 57 1011.1
20260905203544 33 324 1.6 3.2 0.00 0.56 0.56 58 1011.3
20260905203040 33 350 3.2 8.0 0.00 0.56 0.56 57 1011.4
20260905202535 34 340 4.8 8.0 0.00 0.56 0.56 59 1011.4
20260905202031 35 265 6.4 8.0 0.00 0.56 0.56 58 1011.4
20260905201526 33 317 0.0 3.2 0.00 0.56 0.56 58 1011.6
20260905201025 33 325 4.8 4.8 0.00 0.56 0.56 58 1011.6
20260905200521 34 261 3.2 8.0 0.00 0.56 0.56 56 1011.7
20260905200020 33 341 4.8 4.8 0.00 0.56 0.56 57 1011.7
20260905195514 33 340 4.8 3.2 0.00 0.56 0.56 56 1011.8
20260905195010 33 336 3.2 3.2 0.00 0.56 0.56 56 1012.0
20260905194504 33 343 4.8 8.0 0.00 0.56 0.56 57 1011.9
20260905194004 34 262 3.2 4.8 0.00 0.56 0.56 58 1012.1
20260905193458 33 322 1.6 3.2 0.00 0.56 0.56 52 1012.1
20260905192953 33 310 3.2 4.8 0.00 0.56 0.56 57 1012.0
20260905192448 33 307 4.8 4.8 0.00 0.56 0.56 58 1012.0
20260905191944 34 341 3.2 1.6 0.00 0.56 0.56 58 1012.3
20260905191438 33 227 1.6 4.8 0.00 0.56 0.56 55 1012.4
20260905190937 33 159 3.2 3.2 0.00 0.56 0.56 57 1012.3
20260905190435 34 290 1.6 4.8 0.00 0.56 0.56 56 1012.5
20260905185934 34 349 1.6 3.2 0.00 0.56 0.56 54 1012.6
20260905185430 33 348 1.6 3.2 0.00 0.56 0.56 57 1012.4
20260905184928 33 169 3.2 3.2 0.00 0.56 0.56 56 1012.6
20260905184423 33 94 1.6 1.6 0.00 0.56 0.56 56 1012.8
20260905183922 33 208 0.0 1.6 0.00 0.56 0.56 56 1012.6
20260905183416 33 266 3.2 4.8 0.00 0.56 0.56 57 1012.8
20260905182912 32 234 6.4 8.0 0.00 0.56 0.56 57 1012.9
20260905182411 33 221 3.2 3.2 0.00 0.56 0.56 56 1012.8
20260905181907 32 46 1.6 1.6 0.00 0.56 0.56 57 1013.1
20260905181407 31 181 3.2 8.0 0.00 0.56 0.56 61 1012.9
20260905180905 32 211 4.8 8.0 0.00 0.56 0.56 61 1013.3
20260905180401 32 240 4.8 8.0 0.00 0.56 0.56 56 1013.1
20260905175856 31 250 4.8 3.2 0.00 0.56 0.56 64 1013.3
20260905175355 31 285 6.4 8.0 0.00 0.56 0.56 59 1013.3
20260905174850 31 140 4.8 8.0 0.00 0.56 0.56 59 1013.3
20260905174346 32 221 4.8 4.8 0.00 0.56 0.56 59 1013.4
20260905173842 31 255 3.2 9.7 0.00 0.56 0.56 59 1013.5
20260905173337 31 200 4.8 4.8 0.00 0.56 0.56 60 1013.4
20260905172832 31 170 6.4 9.7 0.00 0.56 0.56 62 1013.2
20260905172330 31 250 4.8 8.0 0.00 0.56 0.56 59 1013.4
20260905171827 31 240 8.0 9.7 0.00 0.56 0.56 59 1013.4
20260905171323 30 143 6.4 9.7 0.00 0.56 0.56 57 1013.5
20260905170819 30 186 6.4 11.3 0.00 0.56 0.56 60 1013.6
20260905170315 30 187 6.4 9.7 0.00 0.56 0.56 60 1013.6
20260905165814 30 167 8.0 9.7 0.00 0.56 0.56 60 1013.6
20260905165310 31 218 4.8 9.7 0.00 0.56 0.56 65 1013.8
20260905164809 31 244 9.7 9.7 0.00 0.56 0.56 59 1013.9
20260905164304 30 155 4.8 8.0 0.00 0.56 0.56 58 1013.8
20260905163800 30 149 4.8 9.7 0.00 0.56 0.56 58 1014.1
20260905163256 30 120 8.0 11.3 0.00 0.56 0.56 61 1014.3
20260905162752 30 198 6.4 8.0 0.00 0.56 0.56 61 1014.3
20260905162251 30 104 3.2 4.8 0.00 0.56 0.56 62 1014.1
20260905161746 30 126 4.8 11.3 0.00 0.56 0.56 62 1014.3
20260905161245 29 114 8.0 12.9 0.00 0.56 0.56 63 1014.1
20260905160743 29 123 12.9 14.5 0.00 0.56 0.56 63 1014.0
20260905160237 29 119 9.7 14.5 0.00 0.56 0.56 65 1014.0
20260905155733 29 134 9.7 11.3 0.00 0.56 0.56 63 1013.9
20260905155231 29 107 8.0 11.3 0.00 0.56 0.56 62 1014.1
20260905154725 28 97 11.3 12.9 0.00 0.56 0.56 66 1014.2
20260905154222 28 94 6.4 11.3 0.00 0.56 0.56 67 1014.3
20260905153717 28 93 8.0 11.3 0.00 0.56 0.56 71 1014.3
20260905153213 28 95 6.4 12.9 0.00 0.56 0.56 67 1014.1
20260905152707 28 124 9.7 14.5 0.00 0.56 0.56 69 1014.1
20260905152202 27 138 11.3 12.9 0.00 0.56 0.56 70 1014.1
20260905151701 27 176 9.7 11.3 0.00 0.56 0.56 73 1014.1
20260905151157 27 112 6.4 9.7 0.00 0.56 0.56 73 1014.2
20260905150652 27 213 4.8 12.9 0.00 0.56 0.56 74 1014.3
20260905150151 26 101 3.2 9.7 0.00 0.56 0.56 76 1014.0
20260905145649 27 99 9.7 9.7 0.00 0.56 0.56 75 1014.3
20260905145149 27 122 3.2 4.8 0.00 0.56 0.56 77 1014.6
20260905144643 26 163 3.2 8.0 0.00 0.56 0.56 78 1014.6
20260905144142 26 93 4.8 8.0 0.00 0.56 0.56 80 1014.7
20260905143638 26 105 4.8 4.8 0.00 0.56 0.56 76 1014.7
20260905143137 26 73 1.6 9.7 0.00 0.56 0.56 78 1014.8
20260905142631 26 67 4.8 8.0 0.00 0.56 0.56 77 1014.9
20260905142130 25 101 8.0 9.7 0.00 0.56 0.56 78 1015.0
20260905141625 25 140 8.0 9.7 0.00 0.56 0.56 78 1014.9
20260905141121 25 107 9.7 11.3 0.00 0.56 0.56 78 1015.0
20260905140616 25 109 12.9 12.9 0.00 0.56 0.56 81 1014.9
20260905140115 25 123 11.3 11.3 0.00 0.56 0.56 82 1014.9
20260905135611 24 93 4.8 12.9 0.00 0.56 0.56 83 1014.9
20260905135106 24 98 4.8 11.3 0.00 0.56 0.56 84 1014.9
20260905134601 24 143 11.3 12.9 0.00 0.56 0.56 83 1015.2
20260905134059 23 122 12.9 14.5 0.00 0.56 0.56 83 1014.9
20260905133555 23 97 3.2 12.9 0.00 0.56 0.56 86 1015.0
20260905133054 23 103 11.3 16.1 0.00 0.56 0.56 87 1015.3
20260905132548 23 89 8.0 11.3 0.00 0.56 0.56 88 1015.3
20260905132043 22 74 3.2 9.7 0.00 0.56 0.56 93 1015.6
20260905131539 21 64 3.2 8.0 0.00 0.56 0.56 99 1015.7
20260905131034 21 105 8.0 11.3 0.00 0.56 0.56 99 1015.6
20260905130533 20 110 9.7 12.9 0.00 0.56 0.56 99 1015.6
20260905130029 20 133 11.3 14.5 0.00 0.56 0.56 99 1015.6
20260905125528 20 114 6.4 8.0 0.00 0.56 0.56 99 1015.7
20260905125024 20 100 11.3 17.7 0.00 0.56 0.56 99 1015.8
20260905124520 21 87 16.1 9.7 0.00 0.56 0.56 99 1015.6
20260905124015 21 84 4.8 4.8 0.00 0.56 0.56 99 1015.2
20260905123510 21 42 1.6 4.8 0.00 0.56 0.56 99 1015.2
20260905123007 21 23 1.6 3.2 0.00 0.56 0.56 99 1014.9
20260905122502 21 21 1.6 1.6 0.00 0.56 0.56 99 1015.0
20260905121956 21 41 1.6 3.2 0.00 0.56 0.56 99 1015.0
20260905121452 21 1 0.0 1.6 0.00 0.56 0.56 99 1015.2
20260905120950 20 88 1.6 3.2 0.00 0.56 0.56 99 1015.0
20260905120445 21 2 1.6 4.8 0.48 0.56 0.56 99 1015.3
20260905115940 20 154 3.2 3.2 0.48 0.56 0.56 99 1015.0
20260905115439 20 113 4.8 4.8 0.00 0.48 0.48 99 1014.7
20260905114929 21 73 1.6 3.2 0.00 0.48 0.48 99 1014.2
20260905114428 21 84 3.2 8.0 0.00 0.48 0.48 99 1014.1
20260905113922 21 83 1.6 4.8 0.00 0.48 0.48 99 1014.2
20260905113417 21 81 0.0 0.0 0.00 0.48 0.48 99 1014.2
20260905112913 20 64 0.0 3.2 0.00 0.48 0.48 99 1014.2
20260905112408 20 100 3.2 4.8 0.00 0.48 0.48 99 1014.0
20260905111902 20 78 1.6 3.2 0.00 0.48 0.48 99 1014.1
20260905111356 20 115 4.8 4.8 0.00 0.48 0.48 99 1013.9
20260905110856 20 42 0.0 3.2 0.00 0.48 0.48 99 1014.1
20260905110350 20 57 3.2 8.0 0.00 0.48 0.48 99 1014.1